DW7628 Caltanissetta IT current weather conditions

sailwx.info

Wind from 067

Air temperature 31.1° C
Dewpoint 11.5° C

Last reported at 2019-Aug-25 13:08 UTC.
Time now 2019-Aug-25 13:42 UTC

Location: N 37°30' E 014°03'.
View on Google Maps.

See reports from other nearby stations

  
Tides and Currents Weather Stations Pressure Air Temp Water Temp Dewpoint Dewpoint Depression Visibility Wind Speed Wind Dir Waves Ship Positions
date/time (UTC)wind fromknots sea level pressurealtimeterstation pressurevisibilityair tempwater tempwave heightnotes
2019-Aug-25 13:08 067 31.1
2019-Aug-25 12:49 068 32.2
2019-Aug-25 12:39 148 32.8
2019-Aug-25 12:29 148 31.7
2019-Aug-25 12:19 186 31.1
2019-Aug-25 12:09 186 30.6
2019-Aug-25 11:59 165 31.1
2019-Aug-25 11:49 165 31.1
2019-Aug-25 11:39 099 30.0
2019-Aug-25 11:29 080 30.0
2019-Aug-25 11:19 079 30.0
2019-Aug-25 11:09 091 29.4
2019-Aug-25 10:59 089 29.4
2019-Aug-25 10:49 083 29.4
2019-Aug-25 10:39 038 0 gusting 4 29.4
2019-Aug-25 10:29 050 29.4
2019-Aug-25 10:19 088 30.0
2019-Aug-25 10:09 102 29.4
2019-Aug-25 09:59 064 29.4
2019-Aug-25 09:49 064 28.9
2019-Aug-25 09:39 064 28.9
2019-Aug-25 09:29 064 28.9
2019-Aug-25 09:19 101 29.4
2019-Aug-25 09:09 139 28.9
2019-Aug-25 08:59 139 28.9
2019-Aug-25 08:49 141 28.3
2019-Aug-25 08:39 141 28.3
2019-Aug-25 08:29 105 27.2
2019-Aug-25 08:19 027 27.2
2019-Aug-25 08:09 027 27.2
2019-Aug-25 07:59 027 27.2
2019-Aug-25 07:49 027 26.7
2019-Aug-25 07:39 026 26.1
2019-Aug-25 07:29 024 26.1
2019-Aug-25 07:19 024 25.6
2019-Aug-25 07:09 024 25.6
2019-Aug-25 06:59 023 25.0
2019-Aug-25 06:49 023 1 gusting 4 24.4
2019-Aug-25 06:39 027 24.4
2019-Aug-25 06:29 027 24.4
2019-Aug-25 06:19 027 23.9
2019-Aug-25 06:09 027 23.3
2019-Aug-25 05:59 027 22.8
2019-Aug-25 05:49 027 22.8
2019-Aug-25 05:39 027 22.2
2019-Aug-25 05:29 027 22.2
2019-Aug-25 05:19 027 21.7
2019-Aug-25 05:09 027 21.7
2019-Aug-25 04:59 027 21.7
2019-Aug-25 04:49 027 21.7
2019-Aug-25 04:39 027 21.7
2019-Aug-25 04:29 027 21.7
2019-Aug-25 04:19 027 21.7
2019-Aug-25 04:09 027 21.1
2019-Aug-25 03:59 027 21.1
2019-Aug-25 03:49 027 21.1
2019-Aug-25 03:39 027 21.1
2019-Aug-25 03:29 027 21.7
2019-Aug-25 03:19 027 21.7
2019-Aug-25 03:09 027 21.7
2019-Aug-25 02:59 027 21.7
2019-Aug-25 02:49 027 21.7
2019-Aug-25 02:39 027 21.7
2019-Aug-25 02:29 027 21.1
2019-Aug-25 02:19 027 21.1
2019-Aug-25 02:09 027 21.1
2019-Aug-25 01:59 027 21.1
2019-Aug-25 01:49 027 21.1
2019-Aug-25 01:39 027 21.1
2019-Aug-25 01:29 027 21.1
2019-Aug-25 01:19 027 21.1
2019-Aug-25 01:09 027 21.1
2019-Aug-25 00:59 027 21.1
2019-Aug-25 00:49 027 21.7
2019-Aug-25 00:39 027 21.7
2019-Aug-25 00:29 027 21.7
2019-Aug-25 00:19 027 21.7
2019-Aug-25 00:09 027 21.7
2019-Aug-24 23:59 027 21.7
2019-Aug-24 23:49 027 21.7
2019-Aug-24 23:39 027 21.7
2019-Aug-24 23:29 027 21.7
2019-Aug-24 23:19 027 21.7
2019-Aug-24 23:09 027 21.7
2019-Aug-24 22:59 027 21.7
2019-Aug-24 22:49 027 21.7
2019-Aug-24 22:39 027 21.7
2019-Aug-24 22:29 027 21.7
2019-Aug-24 22:19 027 22.2
2019-Aug-24 22:10 027 22.2
2019-Aug-24 21:59 027 22.2
2019-Aug-24 21:49 027 22.2
2019-Aug-24 21:39 027 22.2
2019-Aug-24 21:29 027 22.2
2019-Aug-24 21:19 027 22.2
2019-Aug-24 21:09 027 22.2
2019-Aug-24 20:59 027 22.2
2019-Aug-24 20:49 027 22.2
2019-Aug-24 20:39 027 22.2
2019-Aug-24 20:29 027 22.8
2019-Aug-24 20:19 027 22.8
2019-Aug-24 20:09 027 22.8
2019-Aug-24 19:59 027 22.8
2019-Aug-24 19:49 027 22.8
2019-Aug-24 19:39 027 22.2
2019-Aug-24 19:29 027 22.2
2019-Aug-24 19:19 027 22.2
2019-Aug-24 19:09 027 22.2
2019-Aug-24 18:59 027 22.2
2019-Aug-24 18:49 027 22.2
2019-Aug-24 18:39 027 22.2
2019-Aug-24 18:29 027 22.2
2019-Aug-24 18:19 027 22.2
2019-Aug-24 18:09 027 22.2
2019-Aug-24 17:59 027 22.8
2019-Aug-24 17:49 027 22.2
2019-Aug-24 17:39 025 22.2
2019-Aug-24 17:29 027 22.2
2019-Aug-24 17:19 029 22.8
2019-Aug-24 17:09 040 22.8
2019-Aug-24 16:59 016 0 gusting 5 22.8
2019-Aug-24 16:49 359 0 gusting 7 23.3
2019-Aug-24 16:39 013 1 gusting 15 23.3
2019-Aug-24 16:29 013 5 gusting 13 23.3
2019-Aug-24 16:19 026 4 gusting 12 23.3
2019-Aug-24 16:09 005 3 gusting 8 24.4
2019-Aug-24 15:59 019 23.9
2019-Aug-24 15:49 012 23.9
2019-Aug-24 15:39 012 24.4
2019-Aug-24 15:29 016 24.4
2019-Aug-24 15:19 143 23.9
2019-Aug-24 15:09 143 23.3
2019-Aug-24 14:59 027 22.2
2019-Aug-24 14:49 023 2 gusting 17 21.7
2019-Aug-24 14:39 016 4 gusting 7 23.9
2019-Aug-24 14:29 011 4 gusting 12 25.0
2019-Aug-24 14:19 010 2 gusting 13 26.1
2019-Aug-24 14:09 159 28.3
2019-Aug-24 13:59 184 3 gusting 10 28.9
2019-Aug-24 13:49 165 0 gusting 10 28.9
2019-Aug-24 13:39 155 0 gusting 7 30.6
2019-Aug-24 13:29 127 31.1
2019-Aug-24 13:19 127 31.1
2019-Aug-24 13:09 127 31.7
2019-Aug-24 12:59 127 31.1
2019-Aug-24 12:49 126 31.1
2019-Aug-24 12:39 126 31.7
2019-Aug-24 12:29 126 31.1
2019-Aug-24 12:19 122 30.6
2019-Aug-24 12:09 119 30.0
2019-Aug-24 11:59 124 29.4
2019-Aug-24 11:49 045 29.4
2019-Aug-24 11:39 013 28.9
2019-Aug-24 11:29 013 28.3
2019-Aug-24 11:19 020 28.3
2019-Aug-24 11:09 020 28.9
2019-Aug-24 10:59 186 29.4
2019-Aug-24 10:49 186 28.9
2019-Aug-24 10:39 186 29.4
2019-Aug-24 10:29 186 30.0
2019-Aug-24 10:19 186 29.4
2019-Aug-24 10:09 186 29.4
2019-Aug-24 09:59 186 28.9
2019-Aug-24 09:49 187 28.3
2019-Aug-24 09:39 187 27.8
2019-Aug-24 09:29 187 27.2
2019-Aug-24 09:19 187 26.7
2019-Aug-24 09:09 187 26.7
2019-Aug-24 08:59 187 26.1
2019-Aug-24 08:49 186 26.1
2019-Aug-24 08:39 188 26.1
2019-Aug-24 08:29 188 26.1
2019-Aug-24 08:19 188 26.1
2019-Aug-24 08:09 185 25.6
2019-Aug-24 07:59 183 25.6
2019-Aug-24 07:49 183 25.6
2019-Aug-24 07:39 160 25.6
2019-Aug-24 07:29 153 25.6
2019-Aug-24 07:19 011 25.6
2019-Aug-24 07:09 007 25.6
2019-Aug-24 06:59 005 25.6
2019-Aug-24 06:49 004 25.0
2019-Aug-24 06:39 004 24.4
2019-Aug-24 06:29 004 23.9
2019-Aug-24 06:19 004 23.3
2019-Aug-24 06:09 004 23.3
2019-Aug-24 05:59 004 22.8
2019-Aug-24 05:49 004 22.8
2019-Aug-24 05:39 004 22.2
2019-Aug-24 05:29 004 22.2
2019-Aug-24 05:19 004 21.7
2019-Aug-24 05:09 004 21.7
2019-Aug-24 04:59 004 21.7
2019-Aug-24 04:49 004 21.7
2019-Aug-24 04:39 004 21.7
2019-Aug-24 04:29 004 21.7
2019-Aug-24 04:19 004 21.7
2019-Aug-24 04:09 004 21.7
2019-Aug-24 03:59 004 21.7
2019-Aug-24 03:49 004 21.7
2019-Aug-24 03:39 004 21.7
2019-Aug-24 03:29 004 21.7
2019-Aug-24 03:19 004 21.7
2019-Aug-24 03:09 004 21.7
2019-Aug-24 02:59 004 21.7
2019-Aug-24 02:49 004 21.7
2019-Aug-24 02:39 004 21.1
2019-Aug-24 02:29 004 21.1
2019-Aug-24 02:19 004 21.1
2019-Aug-24 02:09 004 21.1
2019-Aug-24 01:59 004 21.7
2019-Aug-24 01:49 004 21.7
2019-Aug-24 01:39 004 21.7
2019-Aug-24 01:29 004 22.2
2019-Aug-24 01:19 004 22.2
2019-Aug-24 01:09 004 22.2
2019-Aug-24 00:59 004 22.2
2019-Aug-24 00:49 004 22.2
2019-Aug-24 00:39 004 22.2
2019-Aug-24 00:29 004 21.7
2019-Aug-24 00:19 012 21.7
2019-Aug-24 00:09 011 21.1
2019-Aug-23 23:59 011 21.7
2019-Aug-23 23:49 011 21.7
2019-Aug-23 23:39 011 21.7
2019-Aug-23 23:29 011 21.7
2019-Aug-23 23:19 011 1 gusting 6 21.7
2019-Aug-23 23:09 019 21.7
2019-Aug-23 22:59 022 21.1
2019-Aug-23 22:49 022 21.1
2019-Aug-23 22:39 022 21.1
2019-Aug-23 22:29 022 21.1
2019-Aug-23 22:19 022 21.1
2019-Aug-23 22:10 022 21.1
2019-Aug-23 21:59 022 21.1
2019-Aug-23 21:49 022 21.1
2019-Aug-23 21:39 022 21.1
2019-Aug-23 21:29 022 21.1
2019-Aug-23 21:19 022 21.7
2019-Aug-23 21:09 022 21.7
2019-Aug-23 20:59 022 21.7
2019-Aug-23 20:49 020 21.7
2019-Aug-23 20:39 020 21.7
2019-Aug-23 20:29 021 21.7
2019-Aug-23 20:19 020 21.7
2019-Aug-23 20:09 190 21.7
2019-Aug-23 19:59 191 21.1
2019-Aug-23 19:49 191 21.1
2019-Aug-23 19:39 191 21.1
2019-Aug-23 19:29 191 21.1
2019-Aug-23 19:19 191 20.6
2019-Aug-23 19:09 191 20.6
2019-Aug-23 18:59 191 20.6
2019-Aug-23 18:49 191 20.6
2019-Aug-23 18:39 189 20.6
2019-Aug-23 18:29 189 21.7
2019-Aug-23 18:19 189 21.1
2019-Aug-23 18:09 189 21.1
2019-Aug-23 17:59 189 21.1
2019-Aug-23 17:49 189 21.1
2019-Aug-23 17:39 189 21.1
2019-Aug-23 17:29 189 21.7
2019-Aug-23 17:19 189 21.7
2019-Aug-23 17:09 189 21.1
2019-Aug-23 16:59 189 20.6
2019-Aug-23 16:49 189 20.6
2019-Aug-23 16:39 189 20.6
2019-Aug-23 16:29 191 20.0
2019-Aug-23 16:19 191 20.0
2019-Aug-23 16:09 206 1 gusting 7 19.4
2019-Aug-23 15:59 219 1 gusting 7 20.0
2019-Aug-23 15:49 333 1 gusting 6 20.0
2019-Aug-23 15:39 191 20.0
2019-Aug-23 15:29 053 20.0
2019-Aug-23 15:19 345 0 gusting 4 20.6
2019-Aug-23 15:09 009 20.6
2019-Aug-23 14:59 006 19.4
2019-Aug-23 14:49 015 1 gusting 15 20.6
2019-Aug-23 14:39 001 6 gusting 22 20.6
2019-Aug-23 14:29 033 12 gusting 32 18.9
2019-Aug-23 14:19 016 5 gusting 15 24.4
2019-Aug-23 14:09 065 28.9
2019-Aug-23 13:59 166 0 gusting 11 29.4
2019-Aug-23 13:49 171 0 gusting 10 30.0
2019-Aug-23 13:39 165 0 gusting 10 30.0
2019-Aug-23 13:29 158 1 gusting 8 29.4
2019-Aug-23 13:19 163 0 gusting 7 29.4
2019-Aug-23 13:09 176 3 gusting 12 28.9